Time,TemperatureF,DewpointF,PressureIn,WindDirection,WindDirectionDegrees,WindSpeedMPH,WindSpeedGustMPH,Humidity,HourlyPrecipIn,Conditions,Clouds,dailyrainin,SolarRadiationWatts/m^2,SoftwareType,DateUTC
2013-04-09 00:03:00,68.0,61.0,-100.00,ESE,108,2.0,-999.0,78,0.00,,,-99.99,0.000000,,2013-04-09 04:03:00,
2013-04-09 00:13:00,67.0,61.0,-100.00,ESE,112,2.0,-999.0,79,0.00,,,-99.99,0.000000,,2013-04-09 04:13:00,
2013-04-09 00:23:00,67.0,61.0,-100.00,ESE,112,2.0,-999.0,79,0.00,,,-99.99,0.000000,,2013-04-09 04:23:00,
2013-04-09 00:32:00,67.0,61.0,-100.00,SE,125,2.0,-999.0,81,0.00,,,-99.99,0.000000,,2013-04-09 04:32:00,
2013-04-09 00:43:00,67.0,62.0,-100.00,SE,128,2.0,-999.0,82,0.00,,,-99.99,0.000000,,2013-04-09 04:43:00,
2013-04-09 00:53:00,67.0,62.0,-100.00,SE,128,2.0,-999.0,82,0.00,,,-99.99,0.000000,,2013-04-09 04:53:00,
2013-04-09 01:02:00,67.0,62.0,-100.00,SE,142,2.0,-999.0,84,0.00,,,-99.99,0.000000,,2013-04-09 05:02:00,
2013-04-09 01:12:00,66.0,62.0,-100.00,SE,131,2.0,-999.0,85,0.00,,,-99.99,0.000000,,2013-04-09 05:12:00,
2013-04-09 01:22:00,66.0,62.0,-100.00,SE,131,2.0,-999.0,85,0.00,,,-99.99,0.000000,,2013-04-09 05:22:00,
2013-04-09 01:32:00,66.0,62.0,-100.00,East,97,2.0,-999.0,86,0.00,,,-99.99,0.000000,,2013-04-09 05:32:00,
2013-04-09 01:43:00,64.0,61.0,-100.00,East,84,2.0,-999.0,87,0.00,,,-99.99,0.000000,,2013-04-09 05:43:00,
2013-04-09 01:52:00,64.0,61.0,-100.00,East,84,2.0,-999.0,87,0.00,,,-99.99,0.000000,,2013-04-09 05:52:00,
2013-04-09 02:02:00,64.0,60.0,-100.00,East,87,3.0,-999.0,89,0.00,,,-99.99,0.000000,,2013-04-09 06:02:00,
2013-04-09 02:12:00,63.0,60.0,-100.00,East,92,4.0,-999.0,90,0.00,,,-99.99,0.000000,,2013-04-09 06:12:00,
2013-04-09 02:22:00,63.0,60.0,-100.00,East,92,4.0,-999.0,90,0.00,,,-99.99,0.000000,,2013-04-09 06:22:00,
2013-04-09 02:32:00,63.0,60.0,-100.00,East,89,2.0,-999.0,91,0.00,,,-99.99,0.000000,,2013-04-09 06:32:00,
2013-04-09 02:42:00,64.0,61.0,-100.00,ESE,114,1.0,-999.0,92,0.00,,,-99.99,0.000000,,2013-04-09 06:42:00,
2013-04-09 02:52:00,64.0,61.0,-100.00,ESE,114,1.0,-999.0,92,0.00,,,-99.99,0.000000,,2013-04-09 06:52:00,
2013-04-09 03:02:00,64.0,61.0,-100.00,East,91,1.0,-999.0,92,0.00,,,-99.99,0.000000,,2013-04-09 07:02:00,
2013-04-09 03:13:00,63.0,60.0,-100.00,NNW,347,1.0,-999.0,92,0.00,,,-99.99,0.000000,,2013-04-09 07:13:00,
2013-04-09 03:22:00,63.0,60.0,-100.00,NNW,347,1.0,-999.0,92,0.00,,,-99.99,0.000000,,2013-04-09 07:22:00,
2013-04-09 03:32:00,62.0,60.0,-100.00,NNW,342,1.0,-999.0,92,0.00,,,-99.99,0.000000,,2013-04-09 07:32:00,
2013-04-09 03:42:00,62.0,60.0,-100.00,NW,319,1.0,-999.0,93,0.00,,,-99.99,0.000000,,2013-04-09 07:42:00,
2013-04-09 03:53:00,62.0,60.0,-100.00,NW,319,1.0,-999.0,93,0.00,,,-99.99,0.000000,,2013-04-09 07:53:00,
2013-04-09 04:03:00,61.0,59.0,-100.00,NNW,347,1.0,-999.0,93,0.00,,,-99.99,0.000000,,2013-04-09 08:03:00,
2013-04-09 04:13:00,61.0,59.0,-100.00,NNE,29,1.0,-999.0,93,0.00,,,-99.99,0.000000,,2013-04-09 08:13:00,
2013-04-09 04:22:00,61.0,59.0,-100.00,NNE,29,1.0,-999.0,93,0.00,,,-99.99,0.000000,,2013-04-09 08:22:00,
2013-04-09 04:32:00,61.0,59.0,-100.00,NE,49,1.0,-999.0,94,0.00,,,-99.99,0.000000,,2013-04-09 08:32:00,
2013-04-09 04:42:00,61.0,59.0,-100.00,ENE,59,1.0,-999.0,94,0.00,,,-99.99,0.000000,,2013-04-09 08:42:00,
2013-04-09 04:52:00,61.0,59.0,-100.00,ENE,59,1.0,-999.0,94,0.00,,,-99.99,0.000000,,2013-04-09 08:52:00,
2013-04-09 05:02:00,61.0,60.0,-100.00,East,86,1.0,-999.0,94,0.00,,,-99.99,0.000000,,2013-04-09 09:02:00,
2013-04-09 05:12:00,62.0,60.0,-100.00,East,84,2.0,-999.0,94,0.00,,,-99.99,0.000000,,2013-04-09 09:12:00,
2013-04-09 05:22:00,62.0,60.0,-100.00,East,84,2.0,-999.0,94,0.00,,,-99.99,0.000000,,2013-04-09 09:22:00,
2013-04-09 05:33:00,61.0,60.0,-100.00,ENE,70,2.0,-999.0,94,0.00,,,-99.99,0.000000,,2013-04-09 09:33:00,
2013-04-09 05:43:00,61.0,60.0,-100.00,NE,48,1.0,-999.0,95,0.00,,,-99.99,0.000000,,2013-04-09 09:43:00,
2013-04-09 05:53:00,61.0,60.0,-100.00,NE,48,1.0,-999.0,95,0.00,,,-99.99,0.000000,,2013-04-09 09:53:00,
2013-04-09 06:03:00,61.0,59.0,-100.00,ENE,62,2.0,-999.0,95,0.00,,,-99.99,0.000000,,2013-04-09 10:03:00,
2013-04-09 06:13:00,60.0,59.0,-100.00,ENE,66,2.0,-999.0,95,0.00,,,-99.99,0.000000,,2013-04-09 10:13:00,
2013-04-09 06:23:00,60.0,59.0,-100.00,ENE,66,2.0,-999.0,95,0.00,,,-99.99,0.000000,,2013-04-09 10:23:00,
2013-04-09 06:33:00,61.0,59.0,-100.00,NE,52,2.0,-999.0,95,0.00,,,-99.99,0.000000,,2013-04-09 10:33:00,
2013-04-09 06:43:00,60.0,59.0,-100.00,North,7,1.0,-999.0,96,0.00,,,-99.99,0.000000,,2013-04-09 10:43:00,
2013-04-09 06:53:00,60.0,59.0,-100.00,North,7,1.0,-999.0,96,0.00,,,-99.99,0.000000,,2013-04-09 10:53:00,
2013-04-09 07:02:00,60.0,59.0,-100.00,NNE,31,1.0,-999.0,96,0.00,,,-99.99,0.000000,,2013-04-09 11:02:00,
2013-04-09 07:12:00,60.0,59.0,-100.00,ENE,72,2.0,-999.0,96,0.00,,,-99.99,0.400000,,2013-04-09 11:12:00,
2013-04-09 07:22:00,60.0,59.0,-100.00,ENE,72,2.0,-999.0,96,0.00,,,-99.99,0.400000,,2013-04-09 11:22:00,
2013-04-09 07:32:00,60.0,59.0,-100.00,ENE,58,2.0,-999.0,96,0.00,,,-99.99,4.000000,,2013-04-09 11:32:00,
2013-04-09 07:42:00,60.0,59.0,-100.00,NE,42,1.0,-999.0,96,0.00,,,-99.99,12.400000,,2013-04-09 11:42:00,
2013-04-09 07:52:00,60.0,59.0,-100.00,NE,42,1.0,-999.0,96,0.00,,,-99.99,12.400000,,2013-04-09 11:52:00,
2013-04-09 08:02:00,61.0,60.0,-100.00,NE,51,2.0,-999.0,96,0.00,,,-99.99,63.299999,,2013-04-09 12:02:00,
2013-04-09 08:12:00,62.0,61.0,-100.00,NE,48,2.0,-999.0,96,0.00,,,-99.99,118.500000,,2013-04-09 12:12:00,
2013-04-09 08:22:00,62.0,61.0,-100.00,NE,48,2.0,-999.0,96,0.00,,,-99.99,118.500000,,2013-04-09 12:22:00,
2013-04-09 08:32:00,64.0,63.0,-100.00,ENE,71,3.0,-999.0,96,0.00,,,-99.99,171.199997,,2013-04-09 12:32:00,
2013-04-09 08:42:00,65.0,64.0,-100.00,ENE,65,2.0,-999.0,95,0.00,,,-99.99,173.699997,,2013-04-09 12:42:00,
2013-04-09 08:53:00,65.0,64.0,-100.00,ENE,65,2.0,-999.0,95,0.00,,,-99.99,173.699997,,2013-04-09 12:53:00,
2013-04-09 09:02:00,67.0,66.0,-100.00,East,92,3.0,-999.0,95,0.00,,,-99.99,265.799988,,2013-04-09 13:02:00,
2013-04-09 09:12:00,69.0,67.0,-100.00,ESE,113,3.0,-999.0,92,0.00,,,-99.99,323.899994,,2013-04-09 13:12:00,
2013-04-09 09:23:00,69.0,67.0,-100.00,ESE,113,3.0,-999.0,92,0.00,,,-99.99,323.899994,,2013-04-09 13:23:00,
2013-04-09 09:33:00,72.0,67.0,-100.00,ESE,117,4.0,-999.0,85,0.00,,,-99.99,379.799988,,2013-04-09 13:33:00,
2013-04-09 09:43:00,73.0,67.0,-100.00,ESE,116,5.0,-999.0,82,0.00,,,-99.99,437.200012,,2013-04-09 13:43:00,
2013-04-09 09:53:00,73.0,67.0,-100.00,ESE,116,5.0,-999.0,82,0.00,,,-99.99,437.200012,,2013-04-09 13:53:00,
2013-04-09 10:03:00,75.0,68.0,-100.00,ESE,111,4.0,-999.0,79,0.00,,,-99.99,463.600006,,2013-04-09 14:03:00,
2013-04-09 10:12:00,76.0,68.0,-100.00,ESE,110,6.0,-999.0,76,0.00,,,-99.99,524.500000,,2013-04-09 14:12:00,
2013-04-09 10:22:00,76.0,68.0,-100.00,ESE,110,6.0,-999.0,76,0.00,,,-99.99,524.500000,,2013-04-09 14:22:00,
2013-04-09 10:32:00,76.0,67.0,-100.00,ESE,116,6.0,-999.0,75,0.00,,,-99.99,452.600006,,2013-04-09 14:32:00,
2013-04-09 10:43:00,77.0,67.0,-100.00,ESE,110,6.0,-999.0,71,0.00,,,-99.99,690.500000,,2013-04-09 14:43:00,
2013-04-09 10:52:00,77.0,67.0,-100.00,ESE,110,6.0,-999.0,71,0.00,,,-99.99,690.500000,,2013-04-09 14:52:00,
2013-04-09 11:02:00,77.0,67.0,-100.00,ESE,118,7.0,-999.0,69,0.00,,,-99.99,437.299988,,2013-04-09 15:02:00,
2013-04-09 11:13:00,77.0,66.0,-100.00,SE,124,5.0,-999.0,70,0.00,,,-99.99,329.100006,,2013-04-09 15:13:00,
2013-04-09 11:22:00,77.0,66.0,-100.00,SE,124,5.0,-999.0,70,0.00,,,-99.99,329.100006,,2013-04-09 15:22:00,
2013-04-09 11:33:00,78.0,66.0,-100.00,ESE,115,7.0,-999.0,65,0.00,,,-99.99,603.500000,,2013-04-09 15:33:00,
2013-04-09 11:43:00,79.0,66.0,-100.00,ESE,115,8.0,-999.0,63,0.00,,,-99.99,608.099976,,2013-04-09 15:43:00,
2013-04-09 11:53:00,79.0,66.0,-100.00,ESE,115,8.0,-999.0,63,0.00,,,-99.99,608.099976,,2013-04-09 15:53:00,
2013-04-09 12:03:00,79.0,65.0,-100.00,ESE,114,7.0,-999.0,61,0.00,,,-99.99,538.799988,,2013-04-09 16:03:00,
2013-04-09 12:13:00,79.0,64.0,-100.00,SE,125,8.0,-999.0,59,0.00,,,-99.99,478.100006,,2013-04-09 16:13:00,
2013-04-09 12:23:00,79.0,64.0,-100.00,SE,125,8.0,-999.0,59,0.00,,,-99.99,478.100006,,2013-04-09 16:23:00,
2013-04-09 12:33:00,80.0,64.0,-100.00,ESE,113,7.0,-999.0,57,0.00,,,-99.99,649.700012,,2013-04-09 16:33:00,
2013-04-09 12:42:00,81.0,64.0,-100.00,ESE,115,7.0,-999.0,55,0.00,,,-99.99,814.000000,,2013-04-09 16:42:00,
2013-04-09 12:54:00,81.0,64.0,-100.00,ESE,115,7.0,-999.0,55,0.00,,,-99.99,814.000000,,2013-04-09 16:54:00,
2013-04-09 13:02:00,81.0,62.0,-100.00,ESE,120,8.0,-999.0,52,0.00,,,-99.99,761.000000,,2013-04-09 17:02:00,
2013-04-09 13:13:00,82.0,62.0,-100.00,ESE,118,7.0,-999.0,51,0.00,,,-99.99,572.799988,,2013-04-09 17:13:00,
2013-04-09 13:23:00,82.0,62.0,-100.00,ESE,118,7.0,-999.0,51,0.00,,,-99.99,572.799988,,2013-04-09 17:23:00,
2013-04-09 13:32:00,82.0,62.0,-100.00,SE,125,7.0,-999.0,51,0.00,,,-99.99,790.000000,,2013-04-09 17:32:00,
2013-04-09 13:43:00,82.0,62.0,-100.00,ESE,121,7.0,-999.0,50,0.00,,,-99.99,601.900024,,2013-04-09 17:43:00,
2013-04-09 13:54:00,82.0,62.0,-100.00,ESE,121,7.0,-999.0,50,0.00,,,-99.99,601.900024,,2013-04-09 17:54:00,
2013-04-09 14:02:00,82.0,62.0,-100.00,ESE,106,7.0,-999.0,49,0.00,,,-99.99,907.000000,,2013-04-09 18:02:00,
2013-04-09 14:13:00,82.0,61.0,-100.00,ESE,109,7.0,-999.0,49,0.00,,,-99.99,366.399994,,2013-04-09 18:13:00,
2013-04-09 14:23:00,82.0,61.0,-100.00,ESE,109,7.0,-999.0,49,0.00,,,-99.99,366.399994,,2013-04-09 18:23:00,
2013-04-09 14:33:00,84.0,62.0,-100.00,ESE,116,7.0,-999.0,47,0.00,,,-99.99,624.000000,,2013-04-09 18:33:00,
2013-04-09 14:43:00,82.0,61.0,-100.00,ESE,108,7.0,-999.0,48,0.00,,,-99.99,498.700012,,2013-04-09 18:43:00,
2013-04-09 14:53:00,82.0,61.0,-100.00,ESE,108,7.0,-999.0,48,0.00,,,-99.99,498.700012,,2013-04-09 18:53:00,
2013-04-09 15:03:00,82.0,61.0,-100.00,ESE,108,7.0,-999.0,48,0.00,,,-99.99,498.700012,,2013-04-09 19:03:00,
2013-04-09 15:12:00,82.0,61.0,-100.00,ESE,108,7.0,-999.0,48,0.00,,,-99.99,498.700012,,2013-04-09 19:12:00,
2013-04-09 15:22:00,83.0,61.0,-100.00,ESE,118,7.0,-999.0,47,0.00,,,-99.99,495.399994,,2013-04-09 19:22:00,
2013-04-09 15:32:00,83.0,61.0,-100.00,SE,124,7.0,-999.0,48,0.00,,,-99.99,409.000000,,2013-04-09 19:32:00,
2013-04-09 15:42:00,83.0,61.0,-100.00,SE,124,7.0,-999.0,48,0.00,,,-99.99,409.000000,,2013-04-09 19:42:00,
2013-04-09 15:53:00,81.0,61.0,-100.00,ESE,104,7.0,-999.0,50,0.00,,,-99.99,309.100006,,2013-04-09 19:53:00,
2013-04-09 16:03:00,82.0,61.0,-100.00,ESE,104,7.0,-999.0,50,0.00,,,-99.99,232.399994,,2013-04-09 20:03:00,
2013-04-09 16:12:00,81.0,61.0,-100.00,ESE,103,6.0,-999.0,51,0.00,,,-99.99,225.300003,,2013-04-09 20:12:00,
2013-04-09 16:22:00,81.0,61.0,-100.00,ESE,103,6.0,-999.0,51,0.00,,,-99.99,225.300003,,2013-04-09 20:22:00,
2013-04-09 16:33:00,81.0,61.0,-100.00,East,101,6.0,-999.0,50,0.00,,,-99.99,247.500000,,2013-04-09 20:33:00,
2013-04-09 16:43:00,82.0,62.0,-100.00,East,85,9.0,-999.0,50,0.00,,,-99.99,351.000000,,2013-04-09 20:43:00,
2013-04-09 16:53:00,82.0,62.0,-100.00,East,85,9.0,-999.0,50,0.00,,,-99.99,351.000000,,2013-04-09 20:53:00,
2013-04-09 17:02:00,81.0,62.0,-100.00,ENE,78,9.0,-999.0,51,0.00,,,-99.99,226.100006,,2013-04-09 21:02:00,
2013-04-09 17:22:00,81.0,62.0,-100.00,ENE,78,9.0,-999.0,51,0.00,,,-99.99,226.100006,,2013-04-09 21:22:00,
2013-04-09 17:33:00,81.0,62.0,-100.00,East,85,9.0,-999.0,52,0.00,,,-99.99,185.800003,,2013-04-09 21:33:00,
2013-04-09 17:42:00,81.0,62.0,-100.00,East,85,9.0,-999.0,52,0.00,,,-99.99,185.800003,,2013-04-09 21:42:00,
2013-04-09 17:53:00,80.0,62.0,-100.00,East,85,9.0,-999.0,54,0.00,,,-99.99,88.599998,,2013-04-09 21:53:00,
2013-04-09 18:03:00,79.0,62.0,-100.00,East,86,8.0,-999.0,55,0.00,,,-99.99,82.099998,,2013-04-09 22:03:00,
2013-04-09 18:13:00,79.0,62.0,-100.00,East,86,10.0,-999.0,56,0.00,,,-99.99,89.500000,,2013-04-09 22:13:00,
2013-04-09 18:23:00,79.0,62.0,-100.00,East,86,10.0,-999.0,56,0.00,,,-99.99,89.500000,,2013-04-09 22:23:00,
2013-04-09 18:33:00,78.0,62.0,-100.00,East,94,8.0,-999.0,57,0.00,,,-99.99,90.300003,,2013-04-09 22:33:00,
2013-04-09 18:42:00,78.0,61.0,-100.00,East,87,10.0,-999.0,56,0.00,,,-99.99,139.500000,,2013-04-09 22:42:00,
2013-04-09 18:53:00,78.0,61.0,-100.00,East,87,10.0,-999.0,56,0.00,,,-99.99,139.500000,,2013-04-09 22:53:00,
2013-04-09 19:03:00,79.0,61.0,-100.00,East,93,8.0,-999.0,54,0.00,,,-99.99,225.899994,,2013-04-09 23:03:00,
2013-04-09 19:13:00,79.0,61.0,-100.00,East,97,8.0,-999.0,54,0.00,,,-99.99,200.600006,,2013-04-09 23:13:00,
2013-04-09 19:23:00,79.0,61.0,-100.00,East,97,8.0,-999.0,54,0.00,,,-99.99,200.600006,,2013-04-09 23:23:00,
2013-04-09 19:32:00,78.0,60.0,-100.00,East,97,8.0,-999.0,54,0.00,,,-99.99,129.500000,,2013-04-09 23:32:00,
2013-04-09 19:42:00,77.0,59.0,-100.00,East,92,7.0,-999.0,54,0.00,,,-99.99,48.500000,,2013-04-09 23:42:00,
2013-04-09 19:53:00,77.0,59.0,-100.00,East,92,7.0,-999.0,54,0.00,,,-99.99,48.500000,,2013-04-09 23:53:00,
2013-04-09 20:03:00,75.0,58.0,-100.00,East,91,7.0,-999.0,55,0.00,,,-99.99,12.800000,,2013-04-10 00:03:00,
2013-04-09 20:13:00,75.0,58.0,-100.00,East,91,7.0,-999.0,55,0.00,,,-99.99,12.800000,,2013-04-10 00:13:00,
2013-04-09 20:23:00,75.0,58.0,-100.00,East,90,6.0,-999.0,57,0.00,,,-99.99,2.800000,,2013-04-10 00:23:00,
2013-04-09 20:33:00,74.0,58.0,-100.00,East,85,6.0,-999.0,58,0.00,,,-99.99,0.200000,,2013-04-10 00:33:00,
2013-04-09 20:42:00,73.0,59.0,-100.00,East,82,7.0,-999.0,61,0.00,,,-99.99,0.000000,,2013-04-10 00:42:00,
2013-04-09 20:53:00,73.0,59.0,-100.00,East,82,7.0,-999.0,61,0.00,,,-99.99,0.000000,,2013-04-10 00:53:00,
2013-04-09 21:02:00,72.0,58.0,-100.00,East,81,7.0,-999.0,62,0.00,,,-99.99,0.000000,,2013-04-10 01:02:00,
2013-04-09 21:12:00,72.0,58.0,-100.00,East,83,6.0,-999.0,61,0.00,,,-99.99,0.000000,,2013-04-10 01:12:00,
2013-04-09 21:23:00,72.0,58.0,-100.00,East,83,6.0,-999.0,61,0.00,,,-99.99,0.000000,,2013-04-10 01:23:00,
2013-04-09 21:32:00,71.0,57.0,-100.00,East,82,6.0,-999.0,61,0.00,,,-99.99,0.000000,,2013-04-10 01:32:00,
2013-04-09 21:42:00,70.0,58.0,-100.00,East,84,6.0,-999.0,63,0.00,,,-99.99,0.000000,,2013-04-10 01:42:00,
2013-04-09 21:53:00,70.0,58.0,-100.00,East,84,6.0,-999.0,63,0.00,,,-99.99,0.000000,,2013-04-10 01:53:00,
2013-04-09 22:02:00,70.0,58.0,-100.00,East,80,6.0,-999.0,66,0.00,,,-99.99,0.000000,,2013-04-10 02:02:00,
2013-04-09 22:12:00,69.0,58.0,-100.00,East,89,7.0,-999.0,68,0.00,,,-99.99,0.000000,,2013-04-10 02:12:00,
2013-04-09 22:22:00,69.0,58.0,-100.00,East,89,7.0,-999.0,68,0.00,,,-99.99,0.000000,,2013-04-10 02:22:00,
2013-04-09 22:32:00,69.0,59.0,-100.00,East,93,5.0,-999.0,70,0.00,,,-99.99,0.000000,,2013-04-10 02:32:00,
2013-04-09 22:43:00,69.0,59.0,-100.00,East,100,4.0,-999.0,72,0.00,,,-99.99,0.000000,,2013-04-10 02:43:00,
2013-04-09 22:53:00,69.0,59.0,-100.00,East,100,4.0,-999.0,72,0.00,,,-99.99,0.000000,,2013-04-10 02:53:00,
2013-04-09 23:03:00,68.0,60.0,-100.00,East,92,5.0,-999.0,74,0.00,,,-99.99,0.000000,,2013-04-10 03:03:00,
2013-04-09 23:12:00,68.0,60.0,-100.00,East,96,4.0,-999.0,74,0.00,,,-99.99,0.000000,,2013-04-10 03:12:00,
2013-04-09 23:22:00,68.0,60.0,-100.00,East,96,4.0,-999.0,74,0.00,,,-99.99,0.000000,,2013-04-10 03:22:00,
2013-04-09 23:33:00,67.0,59.0,-100.00,East,94,3.0,-999.0,75,0.00,,,-99.99,0.000000,,2013-04-10 03:33:00,
2013-04-09 23:43:00,67.0,60.0,-100.00,East,98,3.0,-999.0,78,0.00,,,-99.99,0.000000,,2013-04-10 03:43:00,
2013-04-09 23:53:00,67.0,60.0,-100.00,East,98,3.0,-999.0,78,0.00,,,-99.99,0.000000,,2013-04-10 03:53:00,